SAT400 LPPD-LPLA

Flight info

Callsign SAT400
Flight time 0h 25m
Altitude 16000
Route MIPRU H113 LM
Aircraft DH8D/M-SDE2E3FGRY/H

Departure

Time 2026-05-08 12:24
Airport João Paulo II Airport (LPPD)

Arrival

Time 2026-05-08 12:50
Airport Lajes Airport (LPLA)
Time Latitude Longitude Altitude Speed Heading
2026-05-08 12:19 37.74353 -25.69745 235 ft 0 kts 22°
2026-05-08 12:22 37.74354 -25.69745 235 ft 0 kts 25°
2026-05-08 12:22 37.74335 -25.69711 234 ft 12 kts 167°
2026-05-08 12:22 37.74239 -25.69747 230 ft 15 kts 201°
2026-05-08 12:22 37.74159 -25.69645 220 ft 27 kts 111°
2026-05-08 12:23 37.74056 -25.69313 201 ft 50 kts 111°
2026-05-08 12:23 37.73929 -25.68916 180 ft 47 kts 112°
2026-05-08 12:23 37.73823 -25.68598 157 ft 22 kts 131°
2026-05-08 12:23 37.73820 -25.68567 154 ft 2 kts 294°
2026-05-08 12:24 37.73874 -25.68739 168 ft 59 kts 291°
2026-05-08 12:24 37.74117 -25.69516 213 ft 124 kts 293°
2026-05-08 12:24 37.74422 -25.70648 473 ft 143 kts 288°
2026-05-08 12:24 37.74757 -25.71874 914 ft 154 kts 304°
2026-05-08 12:25 37.75411 -25.72907 1429 ft 152 kts 320°
2026-05-08 12:25 37.76126 -25.73890 1969 ft 154 kts 316°
2026-05-08 12:25 37.76847 -25.74883 2459 ft 157 kts 317°
2026-05-08 12:25 37.77593 -25.75925 2944 ft 160 kts 320°
2026-05-08 12:26 37.78343 -25.76973 3453 ft 163 kts 318°
2026-05-08 12:26 37.79100 -25.78035 3998 ft 165 kts 318°
2026-05-08 12:26 37.79868 -25.79113 4550 ft 167 kts 318°
2026-05-08 12:26 37.80639 -25.80195 5110 ft 169 kts 318°
2026-05-08 12:27 37.81422 -25.81296 5679 ft 170 kts 319°
2026-05-08 12:27 37.82216 -25.82411 6249 ft 171 kts 318°
2026-05-08 12:27 37.83006 -25.83523 6816 ft 171 kts 318°
2026-05-08 12:27 37.83795 -25.84633 7383 ft 171 kts 318°
2026-05-08 12:28 37.84583 -25.85743 7956 ft 171 kts 318°
2026-05-08 12:28 37.85369 -25.86850 8522 ft 170 kts 318°
2026-05-08 12:28 37.86158 -25.87961 9085 ft 170 kts 318°
2026-05-08 12:28 37.86943 -25.89066 9617 ft 169 kts 318°
2026-05-08 12:29 37.87720 -25.90162 10139 ft 169 kts 319°
2026-05-08 12:29 37.88502 -25.91263 10663 ft 168 kts 319°
2026-05-08 12:29 37.89281 -25.92363 11176 ft 167 kts 319°
2026-05-08 12:29 37.90046 -25.93442 11663 ft 166 kts 318°
2026-05-08 12:30 37.90816 -25.94528 12125 ft 165 kts 319°
2026-05-08 12:30 37.91578 -25.95604 12571 ft 164 kts 318°
2026-05-08 12:30 37.92334 -25.96672 12997 ft 163 kts 317°
2026-05-08 12:30 37.93124 -25.97780 13164 ft 179 kts 318°
2026-05-08 12:31 37.94004 -25.99008 13250 ft 197 kts 317°
2026-05-08 12:31 37.94969 -26.00367 13323 ft 216 kts 317°
2026-05-08 12:31 37.96005 -26.01833 13505 ft 228 kts 316°
2026-05-08 12:31 37.97075 -26.03357 13852 ft 233 kts 316°
2026-05-08 12:32 37.98141 -26.04876 14311 ft 232 kts 316°
2026-05-08 12:32 37.99216 -26.06408 14700 ft 234 kts 316°
2026-05-08 12:32 38.00301 -26.07951 15094 ft 235 kts 316°
2026-05-08 12:32 38.01382 -26.09490 15506 ft 234 kts 316°
2026-05-08 12:33 38.02478 -26.11047 15826 ft 237 kts 316°
2026-05-08 12:33 38.03597 -26.12633 15955 ft 247 kts 316°
2026-05-08 12:33 38.04770 -26.14294 15990 ft 259 kts 316°
2026-05-08 12:33 38.05998 -26.16035 16003 ft 269 kts 315°
2026-05-08 12:34 38.07266 -26.17835 16004 ft 278 kts 316°
2026-05-08 12:34 38.08571 -26.19691 16009 ft 285 kts 315°
2026-05-08 12:34 38.09899 -26.21581 16004 ft 291 kts 315°
2026-05-08 12:34 38.11266 -26.23527 15997 ft 297 kts 315°
2026-05-08 12:35 38.12654 -26.25507 15997 ft 301 kts 315°
2026-05-08 12:35 38.14063 -26.27517 16001 ft 305 kts 315°
2026-05-08 12:35 38.15470 -26.29524 16001 ft 307 kts 315°
2026-05-08 12:35 38.16890 -26.31552 16007 ft 308 kts 315°
2026-05-08 12:36 38.18332 -26.33614 16002 ft 308 kts 315°
2026-05-08 12:36 38.19757 -26.35654 16006 ft 308 kts 315°
2026-05-08 12:36 38.21169 -26.37674 16004 ft 307 kts 315°
2026-05-08 12:36 38.22595 -26.39714 16004 ft 307 kts 315°
2026-05-08 12:37 38.23953 -26.41672 15979 ft 282 kts 315°
2026-05-08 12:37 38.25199 -26.43481 15981 ft 258 kts 315°
2026-05-08 12:37 38.26349 -26.45143 15994 ft 247 kts 316°
2026-05-08 12:37 38.27490 -26.46774 15978 ft 247 kts 316°
2026-05-08 12:38 38.28645 -26.48420 15714 ft 255 kts 316°
2026-05-08 12:38 38.29851 -26.50140 15321 ft 266 kts 316°
2026-05-08 12:38 38.31094 -26.51918 14855 ft 272 kts 315°
2026-05-08 12:38 38.32364 -26.53741 14363 ft 276 kts 315°
2026-05-08 12:39 38.33644 -26.55583 13864 ft 279 kts 315°
2026-05-08 12:39 38.34929 -26.57433 13368 ft 282 kts 316°
2026-05-08 12:39 38.36229 -26.59305 12858 ft 282 kts 316°
2026-05-08 12:39 38.37508 -26.61153 12345 ft 277 kts 315°
2026-05-08 12:40 38.38765 -26.62973 11845 ft 272 kts 315°
2026-05-08 12:40 38.40012 -26.64775 11353 ft 268 kts 316°
2026-05-08 12:40 38.41236 -26.66544 10872 ft 264 kts 315°
2026-05-08 12:40 38.42438 -26.68282 10399 ft 261 kts 315°
2026-05-08 12:41 38.43632 -26.70008 9930 ft 258 kts 315°
2026-05-08 12:41 38.44812 -26.71714 9472 ft 255 kts 316°
2026-05-08 12:41 38.45979 -26.73401 9015 ft 253 kts 315°
2026-05-08 12:41 38.47134 -26.75072 8561 ft 251 kts 315°
2026-05-08 12:42 38.48281 -26.76731 8109 ft 249 kts 315°
2026-05-08 12:42 38.49403 -26.78361 7664 ft 242 kts 316°
2026-05-08 12:42 38.50504 -26.79963 7225 ft 234 kts 316°
2026-05-08 12:42 38.51562 -26.81501 6807 ft 228 kts 316°
2026-05-08 12:43 38.52590 -26.82995 6408 ft 221 kts 316°
2026-05-08 12:43 38.53604 -26.84427 6012 ft 215 kts 318°
2026-05-08 12:43 38.54596 -26.85831 5613 ft 210 kts 316°
2026-05-08 12:43 38.55546 -26.87202 5203 ft 205 kts 317°
2026-05-08 12:44 38.56487 -26.88559 4783 ft 201 kts 318°
2026-05-08 12:44 38.57504 -26.89729 4356 ft 195 kts 327°
2026-05-08 12:44 38.58565 -26.90769 3922 ft 192 kts 327°
2026-05-08 12:44 38.59600 -26.91819 3482 ft 190 kts 326°
2026-05-08 12:45 38.60622 -26.92878 3114 ft 183 kts 325°
2026-05-08 12:45 38.61562 -26.93858 2975 ft 166 kts 326°
2026-05-08 12:45 38.62413 -26.94745 2857 ft 151 kts 327°
2026-05-08 12:45 38.63230 -26.95571 2771 ft 150 kts 326°
2026-05-08 12:46 38.64027 -26.96394 2639 ft 143 kts 325°
2026-05-08 12:46 38.64759 -26.97167 2479 ft 131 kts 326°
2026-05-08 12:46 38.65457 -26.97886 2398 ft 127 kts 326°
2026-05-08 12:46 38.66148 -26.98598 2344 ft 127 kts 326°
2026-05-08 12:47 38.66836 -26.99313 2288 ft 127 kts 326°
2026-05-08 12:47 38.67534 -27.00037 2245 ft 130 kts 326°
2026-05-08 12:47 38.68246 -27.00775 2128 ft 133 kts 325°
2026-05-08 12:47 38.68951 -27.01526 1804 ft 132 kts 325°
2026-05-08 12:48 38.69647 -27.02267 1594 ft 126 kts 326°
2026-05-08 12:48 38.70324 -27.02948 1438 ft 122 kts 327°
2026-05-08 12:48 38.71002 -27.03637 1287 ft 124 kts 326°
2026-05-08 12:48 38.71670 -27.04348 1247 ft 129 kts 323°
2026-05-08 12:49 38.72388 -27.05100 1115 ft 129 kts 324°
2026-05-08 12:49 38.73081 -27.05837 886 ft 133 kts 323°
2026-05-08 12:49 38.73772 -27.06570 601 ft 122 kts 323°
2026-05-08 12:49 38.74424 -27.07234 450 ft 120 kts 324°
2026-05-08 12:50 38.75082 -27.07925 298 ft 125 kts 322°
2026-05-08 12:50 38.75760 -27.08637 196 ft 116 kts 323°
2026-05-08 12:50 38.76213 -27.09108 189 ft 49 kts 320°
2026-05-08 12:50 38.76411 -27.09316 184 ft 29 kts 321°
2026-05-08 12:51 38.76542 -27.09451 182 ft 15 kts 340°
2026-05-08 12:51 38.76621 -27.09294 177 ft 11 kts 137°
2026-05-08 12:51 38.76514 -27.09183 179 ft 30 kts 141°
2026-05-08 12:52 38.76338 -27.09000 180 ft 32 kts 141°
2026-05-08 12:52 38.76134 -27.08937 187 ft 15 kts 231°
2026-05-08 12:52 38.76053 -27.08942 189 ft 15 kts 140°
2026-05-08 12:53 38.75885 -27.08899 190 ft 34 kts 185°
2026-05-08 12:53 38.75713 -27.08831 197 ft 24 kts 140°
2026-05-08 12:53 38.75580 -27.08695 196 ft 21 kts 141°
2026-05-08 12:53 38.75510 -27.08639 195 ft 6 kts 223°
2026-05-08 12:54 38.75506 -27.08678 197 ft 4 kts 271°
2026-05-08 12:54 38.75489 -27.08733 199 ft 7 kts 230°
2026-05-08 12:54 38.75478 -27.08749 199 ft 0 kts 232°